Wind_Speed
28 24 21 20 22 23 24 25 27 27 27 25 22 27 27 29 29 25 17 13 15 10 6 2 5 7 6 6 13 19 17 17 19 20 15 15 14 14 16 19 22 19 16 14
21 22 20 22 25 25 25 26 28 30 27 27 26 25 25 30 30 26 21 12 9 13 5 6 4 9 10 7 9 14 17 17 15 15 15 14 14 10 12 13 17 19 16 14
12 15 16 20 25 28 28 26 27 31 30 30 30 29 29 28 29 28 25 18 15 13 7 6 6 7 14 15 13 15 17 16 16 17 17 16 12 12 12 14 14 15 16 16
11 11 12 13 18 24 28 27 30 31 33 30 24 27 34 31 28 30 28 24 19 15 14 10 11 10 11 17 16 16 17 16 17 17 17 18 17 14 14 14 13 13 14 15
11 11 10 11 12 16 21 25 31 33 34 32 31 36 37 36 33 33 30 25 24 21 20 17 15 15 13 13 16 16 17 19 19 18 16 16 16 14 14 13 14 16 16 18
13 11 10 10 10 10 14 17 26 32 37 39 39 39 40 41 39 34 34 27 28 22 23 19 15 10 15 16 15 18 21 22 20 17 14 13 13 12 10 8 8 5 3 1
14 13 12 11 10 11 12 12 15 22 34 40 41 40 43 38 47 42 40 39 32 30 27 26 19 14 13 19 22 21 23 25 22 20 14 11 10 12 9 8 8 5 3 3
17 15 15 15 15 13 13 13 14 15 18 29 38 42 48 42 44 49 45 46 39 37 34 33 30 21 20 18 22 27 26 29 26 25 18 17 14 16 14 12 9 7 4 3
19 19 19 18 18 17 15 13 14 16 17 18 25 35 49 47 46 46 48 48 49 44 44 38 34 33 27 25 22 25 31 31 33 29 22 24 21 23 21 19 14 11 7 6
21 22 24 24 23 20 19 16 15 17 18 18 21 27 35 42 47 49 50 49 48 49 50 46 43 39 36 29 24 25 25 32 34 32 28 26 27 28 26 26 22 18 14 13
24 25 27 29 29 26 21 18 17 18 18 20 20 23 25 28 42 48 51 53 51 51 50 54 50 45 42 37 29 26 27 26 27 31 30 29 28 32 31 30 28 25 23 20
29 29 27 28 28 28 23 20 18 20 19 20 21 20 21 21 28 41 47 52 48 42 56 52 54 53 48 44 38 34 29 29 32 32 32 31 30 30 33 33 33 31 29 26
31 31 29 26 26 26 26 23 21 21 22 20 20 20 19 18 19 24 37 46 46 34 66 54 51 52 54 50 45 38 39 33 33 36 35 35 35 34 32 31 30 29 29 29
28 27 27 25 23 24 25 23 22 23 23 22 20 21 19 21 18 18 20 32 47 57 57 54 53 51 50 49 49 45 39 40 40 39 43 40 38 36 36 37 36 35 33 33
26 25 23 20 18 19 20 22 23 24 23 23 21 22 19 20 22 18 18 17 27 40 51 55 56 55 50 48 48 39 33 35 41 45 43 45 43 44 41 38 34 33 35 34
23 18 14 12 10 12 11 13 19 22 24 25 23 24 19 22 22 24 19 17 17 22 37 51 58 60 54 51 45 23 50 22 56 51 47 48 50 50 49 44 39 37 36 33
15 14 17 14 9 11 12 8 11 15 19 22 25 26 26 24 25 26 26 23 21 19 20 36 45 59 59 56 53 44 43 42 19 33 46 52 51 53 53 50 48 46 43 38
18 17 16 12 8 8 8 11 12 15 17 18 20 23 27 29 29 29 30 28 27 27 22 22 28 41 52 57 57 53 49 55 37 43 49 56 62 58 58 57 56 50 47 45
16 13 12 13 12 12 12 13 16 19 20 19 21 23 25 29 34 34 33 32 32 32 30 27 28 27 37 47 57 62 70 78 68 60 55 62 67 67 67 62 58 57 53 50
15 12 15 17 18 18 17 19 18 21 24 24 23 26 29 29 29 25 35 39 38 36 35 35 34 33 34 35 42 59 71 76 80 80 80 73 69 67 60 60 59 61 62 64
18 18 19 21 22 24 26 25 24 24 28 29 29 30 33 34 33 31 31 31 34 39 41 40 40 39 39 40 40 41 49 67 77 82 81 78 82 82 75 72 71 65 65 70
21 21 23 26 28 30 31 30 33 33 34 35 35 32 33 37 37 38 39 40 36 35 38 43 47 46 46 47 47 45 43 43 44 56 74 80 82 81 83 83 80 72 70 66
24 22 22 27 28 30 32 36 38 40 40 42 43 41 40 41 38 39 42 48 43 45 43 40 44 51 54 53 53 52 48 46 46 45 46 55 70 81 81 78 80 79 75 75
27 29 28 27 31 29 32 33 33 35 40 43 44 46 46 46 48 47 45 50 51 52 51 48 46 45 48 55 60 60 58 56 56 55 55 53 54 60 68 77 83 83 85 83
31 35 32 33 35 34 38 37 39 43 44 47 50 51 52 53 55 56 55 54 56 58 58 56 54 54 53 53 56 60 65 65 65 64 63 63 61 61 63 64 69 77 85 88
41 39 39 37 41 41 44 47 50 52 58 59 56 57 60 61 64 67 64 63 64 64 65 64 62 59 55 58 58 58 60 62 68 69 68 69 68 67 66 65 66 69 73 79
Wind_Direction
277 276 269 260 258 255 249 250 254 255 246 242 244 253 260 268 277 278 287 292 292 311 186 175 159 112 103 136 183 200 205 215 223 224 230 229 215 193 179 175 182 195 204 218
283 290 274 258 252 247 245 246 249 252 250 242 230 243 253 263 272 272 277 277 271 284 238 186 204 163 144 158 164 177 187 199 212 219 206 217 209 189 177 172 184 192 206 223
310 303 287 272 258 250 245 242 247 250 249 246 239 234 246 250 263 270 270 264 255 262 246 225 224 223 181 170 180 192 197 203 203 204 201 192 188 182 187 190 201 218 224 234
326 314 297 282 268 263 251 240 238 246 249 247 243 252 244 242 246 256 260 264 264 244 242 214 224 231 228 203 189 197 204 202 199 187 187 184 187 199 208 218 221 230 236 241
333 332 323 312 299 276 268 247 237 239 246 244 227 223 237 244 239 246 248 251 241 249 247 210 219 234 235 232 215 200 202 197 186 189 197 199 206 217 237 246 247 247 250 254
331 331 330 328 323 320 297 275 253 241 241 244 240 237 241 238 239 235 236 233 233 248 236 204 211 215 236 242 239 224 210 202 202 202 205 216 220 222 227 222 228 216 156 144
317 323 324 323 323 318 309 300 288 266 244 244 248 247 245 233 236 237 232 231 234 238 237 223 206 204 217 235 240 238 223 214 216 208 204 221 214 210 212 209 196 180 177 189
314 312 314 318 319 320 310 299 301 290 272 264 253 242 245 238 235 236 237 235 230 230 231 234 240 228 225 221 229 231 230 220 219 218 234 238 227 215 217 217 217 243 249 185
311 311 311 312 314 314 310 301 288 286 285 280 264 258 253 247 236 233 236 235 233 230 231 233 237 244 233 233 225 222 219 218 216 222 239 249 233 219 218 218 230 247 249 243
311 311 310 308 307 307 305 299 285 277 278 279 280 274 267 253 250 242 238 235 230 228 227 231 238 241 235 235 234 231 228 224 225 228 231 237 225 217 218 223 224 240 244 255
310 309 307 305 305 305 301 295 287 276 275 276 278 281 284 273 249 245 244 242 238 233 231 232 238 241 242 239 242 243 247 241 239 237 239 241 238 222 220 224 230 238 245 251
305 303 301 302 303 303 303 296 283 278 272 272 278 281 285 280 270 253 245 245 242 257 247 236 236 237 241 241 243 247 243 245 242 235 234 233 240 235 226 228 232 233 237 242
306 305 305 303 300 298 297 294 286 277 280 278 276 280 285 285 286 272 255 246 237 195 247 240 234 234 237 241 242 239 241 245 247 240 237 241 235 234 239 242 247 249 248 245
306 304 305 304 301 299 295 292 286 282 283 279 278 274 281 287 293 296 278 256 245 240 242 242 241 235 236 240 243 247 251 259 264 259 250 249 246 237 236 239 244 247 253 258
308 313 313 306 304 297 293 290 282 279 277 280 282 273 272 278 284 287 291 284 258 250 245 242 243 241 236 237 244 250 251 270 268 258 262 246 243 243 246 242 245 246 250 252
316 325 324 346 335 328 325 307 295 291 284 282 281 281 273 268 270 279 277 279 282 264 246 243 243 246 239 235 234 218 256 255 261 248 248 246 242 241 244 244 248 246 246 254
312 313 316 327 337 339 340 343 328 314 296 286 282 281 279 271 268 265 269 274 274 272 265 249 243 242 245 240 235 229 222 214 237 249 250 250 248 240 240 245 247 248 247 248
303 305 305 313 331 351 342 326 314 304 302 301 292 286 283 280 274 267 265 266 270 271 266 263 250 242 243 241 242 228 203 199 219 207 234 242 242 243 240 240 244 249 245 240
303 311 310 308 313 323 329 328 324 324 327 316 311 312 308 297 286 280 276 268 263 264 268 266 263 255 243 238 235 235 232 230 237 238 235 243 246 246 242 240 244 244 243 238
304 318 322 315 308 318 321 318 313 314 319 317 317 320 313 312 309 312 287 278 272 267 262 259 264 267 260 254 242 231 236 238 241 243 244 242 240 240 238 239 245 243 244 242
308 300 301 306 307 308 307 311 308 305 305 304 305 307 307 307 308 307 302 296 284 276 270 264 258 256 259 261 259 255 245 238 238 239 239 237 238 241 246 249 251 247 247 247
296 298 299 298 300 303 303 304 301 302 300 300 296 294 302 303 297 298 299 296 293 286 277 270 264 258 254 253 254 256 255 254 253 248 241 241 242 241 244 247 249 249 247 248
293 296 301 299 299 300 301 300 300 303 304 303 303 301 295 293 293 289 288 289 289 289 285 281 269 264 261 255 253 253 252 253 254 249 246 244 244 245 245 246 248 251 248 247
291 299 299 303 300 300 295 294 298 299 296 294 293 295 293 291 289 286 283 282 287 284 284 284 281 272 264 261 258 255 250 248 249 249 250 247 247 247 248 249 247 247 250 251
292 298 305 296 298 294 292 295 299 305 300 298 294 289 286 285 284 283 281 279 278 279 277 276 277 279 275 268 261 256 254 253 249 247 249 249 249 246 244 244 248 248 249 250
293 297 298 296 295 291 289 295 298 304 303 300 291 289 286 285 287 289 286 279 272 272 273 272 273 273 273 271 269 264 260 256 254 251 250 249 250 251 251 250 250 248 248 250
Height
10928 10932 10936 10938 10937 10938 10938 10938 10938 10942 10943 10947 10948 10947 10948 10950 10952 10957 10959 10958 10958 10958 10956 10956 10955 10953 10953 10955 10958 10963 10968 10971 10974 10977 10980 10981 10982 10983 10984 10986 10988 10992 10994 10994
10925 10925 10929 10929 10929 10930 10932 10932 10933 10935 10938 10941 10943 10943 10945 10945 10949 10951 10954 10956 10956 10955 10954 10954 10955 10953 10952 10955 10958 10961 10965 10969 10972 10974 10977 10979 10981 10983 10984 10986 10988 10989 10991 10993
10923 10921 10921 10921 10921 10923 10925 10927 10927 10929 10932 10934 10938 10939 10940 10942 10943 10945 10947 10951 10952 10953 10952 10952 10954 10956 10954 10955 10958 10961 10964 10967 10970 10972 10974 10976 10978 10981 10983 10984 10987 10988 10989 10989
10921 10919 10916 10916 10915 10916 10917 10921 10922 10922 10924 10929 10935 10936 10934 10936 10938 10939 10941 10944 10947 10949 10949 10950 10951 10953 10955 10956 10956 10959 10962 10965 10968 10970 10972 10974 10976 10978 10980 10981 10983 10984 10985 10985
10919 10916 10914 10912 10912 10911 10910 10914 10915 10916 10917 10920 10926 10925 10927 10929 10932 10934 10935 10937 10940 10943 10945 10945 10947 10949 10951 10954 10955 10956 10959 10963 10965 10968 10970 10972 10974 10975 10978 10978 10980 10980 10980 10981
10918 10916 10914 10911 10910 10908 10907 10907 10908 10909 10910 10910 10913 10917 10919 10922 10923 10926 10928 10931 10933 10936 10940 10940 10943 10944 10947 10950 10952 10953 10956 10960 10963 10964 10967 10969 10970 10971 10974 10975 10975 10976 10976 10977
10916 10914 10912 10910 10908 10906 10904 10902 10902 10902 10902 10902 10904 10909 10905 10915 10913 10916 10919 10924 10928 10930 10933 10936 10937 10939 10942 10945 10948 10951 10953 10956 10960 10963 10964 10965 10967 10968 10970 10973 10974 10975 10975 10976
10912 10911 10909 10907 10905 10903 10901 10899 10897 10896 10895 10894 10895 10896 10890 10902 10903 10906 10909 10914 10920 10923 10926 10929 10932 10935 10937 10938 10940 10945 10948 10952 10955 10959 10960 10961 10962 10964 10966 10970 10972 10973 10974 10974
10906 10905 10903 10902 10900 10898 10896 10895 10893 10890 10888 10887 10885 10885 10881 10888 10892 10895 10897 10903 10909 10914 10917 10921 10925 10927 10929 10931 10933 10936 10940 10943 10947 10950 10953 10955 10957 10958 10961 10964 10967 10969 10970 10971
10901 10899 10896 10895 10893 10892 10890 10889 10888 10885 10883 10881 10879 10876 10873 10877 10881 10884 10886 10890 10897 10902 10906 10910 10914 10918 10922 10926 10930 10932 10935 10939 10942 10944 10945 10948 10949 10951 10954 10956 10960 10962 10964 10966
10896 10893 10889 10886 10884 10884 10884 10882 10880 10877 10876 10874 10872 10869 10867 10868 10868 10871 10874 10878 10886 10892 10894 10898 10904 10909 10913 10921 10926 10928 10931 10935 10938 10940 10942 10944 10945 10945 10947 10948 10951 10954 10956 10958
10888 10886 10884 10881 10877 10874 10875 10874 10872 10869 10869 10867 10865 10864 10861 10860 10858 10859 10863 10866 10879 10892 10887 10888 10892 10898 10903 10909 10915 10919 10922 10925 10927 10930 10933 10935 10940 10941 10941 10943 10944 10944 10946 10948
10879 10876 10874 10873 10870 10868 10866 10865 10863 10862 10860 10860 10859 10858 10855 10854 10852 10850 10852 10857 10869 10874 10864 10875 10881 10885 10888 10895 10901 10906 10911 10916 10918 10921 10924 10926 10929 10933 10936 10939 10941 10942 10942 10942
10870 10868 10867 10865 10863 10860 10859 10857 10855 10854 10853 10852 10852 10850 10850 10847 10846 10845 10845 10846 10849 10853 10855 10859 10864 10872 10877 10883 10889 10897 10903 10907 10911 10915 10918 10920 10923 10924 10925 10927 10930 10934 10936 10937
10862 10861 10860 10858 10857 10855 10852 10851 10848 10847 10845 10844 10844 10842 10843 10841 10840 10840 10839 10837 10838 10840 10844 10847 10849 10857 10867 10873 10879 10889 10894 10897 10897 10899 10906 10912 10914 10917 10918 10919 10921 10924 10925 10927
10856 10856 10854 10853 10852 10850 10848 10846 10843 10841 10839 10837 10836 10835 10836 10835 10834 10833 10833 10833 10832 10831 10832 10834 10839 10842 10853 10860 10872 10877 10896 10891 10893 10884 10890 10897 10900 10905 10907 10910 10913 10914 10913 10915
10853 10852 10850 10851 10849 10847 10844 10842 10840 10836 10833 10831 10830 10828 10827 10828 10827 10827 10826 10827 10826 10826 10825 10824 10826 10830 10838 10845 10853 10867 10872 10880 10864 10869 10874 10881 10889 10889 10894 10899 10901 10902 10903 10906
10849 10848 10846 10845 10845 10844 10841 10838 10835 10832 10829 10826 10824 10822 10820 10819 10818 10819 10819 10821 10820 10821 10822 10819 10817 10819 10823 10832 10836 10844 10848 10844 10846 10850 10848 10862 10869 10873 10879 10883 10886 10888 10891 10893
10845 10844 10842 10841 10840 10840 10837 10835 10832 10828 10825 10822 10820 10817 10815 10812 10810 10810 10810 10812 10812 10813 10814 10815 10813 10811 10812 10816 10822 10825 10831 10832 10834 10837 10843 10848 10852 10856 10862 10867 10875 10875 10879 10881
10841 10841 10839 10838 10836 10835 10834 10831 10828 10824 10821 10818 10815 10812 10809 10807 10804 10804 10800 10800 10801 10802 10803 10805 10806 10806 10804 10804 10807 10813 10812 10812 10816 10822 10829 10834 10835 10839 10844 10849 10856 10860 10862 10866
10837 10836 10834 10833 10831 10829 10827 10825 10823 10822 10817 10814 10812 10808 10803 10799 10796 10795 10793 10790 10789 10790 10790 10791 10792 10795 10795 10794 10795 10796 10798 10800 10802 10807 10811 10815 10817 10820 10828 10835 10840 10844 10846 10846
10832 10830 10828 10826 10824 10822 10818 10816 10813 10811 10809 10805 10803 10801 10798 10793 10789 10785 10781 10780 10779 10777 10777 10777 10778 10779 10780 10780 10781 10782 10784 10785 10787 10790 10793 10797 10799 10805 10808 10813 10817 10824 10828 10828
10824 10823 10822 10819 10817 10814 10811 10806 10804 10800 10797 10794 10791 10789 10786 10783 10780 10776 10772 10769 10767 10764 10763 10761 10761 10762 10764 10766 10765 10768 10771 10771 10771 10772 10773 10775 10778 10781 10785 10791 10795 10799 10806 10811
10816 10814 10813 10811 10806 10805 10800 10797 10795 10792 10787 10782 10778 10775 10772 10768 10765 10763 10760 10757 10753 10749 10746 10745 10744 10743 10744 10744 10746 10748 10752 10755 10756 10756 10757 10760 10760 10762 10765 10767 10774 10779 10783 10788
10806 10805 10804 10801 10796 10794 10788 10786 10783 10779 10774 10770 10765 10761 10756 10752 10748 10744 10741 10737 10734 10732 10729 10728 10725 10723 10723 10724 10725 10727 10728 10730 10735 10738 10740 10743 10745 10748 10750 10752 10755 10760 10763 10766
10793 10794 10792 10788 10783 10781 10773 10771 10768 10765 10758 10751 10746 10741 10735 10731 10728 10722 10720 10717 10713 10711 10707 10705 10704 10704 10704 10703 10702 10704 10707 10709 10712 10716 10719 10721 10725 10728 10731 10735 10738 10740 10743 10745